| time (UTC) | temp C | wind direction | speed KPH | gust KPH | rain 1hr cm | rain 24hr cm | rain mn cm | humidity % | barometer mb |
| 20260504235008 | 20 | 225 | 3.2 | 14.5 | 0.00 | 0.00 | 0.00 | 31 | 1012.2 |
| 20260504234802 | 20 | 234 | 3.2 | 12.9 | 0.00 | 0.00 | 0.00 | 31 | 1013.9 |
| 20260504234518 | 20 | 241 | 1.6 | 12.9 | 0.00 | 0.00 | 0.00 | 31 | 1012.3 |
| 20260504234301 | 20 | 325 | 3.2 | 12.9 | 0.00 | 0.00 | 0.00 | 32 | 1013.9 |
| 20260504234006 | 20 | 288 | 3.2 | 9.7 | 0.00 | 0.00 | 0.00 | 30 | 1012.2 |
| 20260504233801 | 20 | 242 | 3.2 | 9.7 | 0.00 | 0.00 | 0.00 | 31 | 1013.9 |
| 20260504233506 | 20 | 296 | 0.0 | 9.7 | 0.00 | 0.00 | 0.00 | 31 | 1012.2 |
| 20260504233300 | 20 | 286 | 3.2 | 9.7 | 0.00 | 0.00 | 0.00 | 30 | 1013.9 |
| 20260504233026 | 20 | 239 | 3.2 | 19.3 | 0.00 | 0.00 | 0.00 | 32 | 1014.0 |
| 20260504233013 | 20 | 181 | 0.0 | 19.3 | 0.00 | 0.00 | 0.00 | 31 | 1012.3 |
| 20260504232520 | 20 | 275 | 3.2 | 19.3 | 0.00 | 0.00 | 0.00 | 32 | 1014.1 |
| 20260504232508 | 20 | 150 | 1.6 | 19.3 | 0.00 | 0.00 | 0.00 | 32 | 1012.2 |
| 20260504232010 | 20 | 290 | 4.8 | 19.3 | 0.00 | 0.00 | 0.00 | 30 | 1012.3 |
| 20260504231757 | 20 | 290 | 3.2 | 9.7 | 0.00 | 0.00 | 0.00 | 32 | 1014.0 |
| 20260504231526 | 20 | 9 | 1.6 | 9.7 | 0.00 | 0.00 | 0.00 | 31 | 1012.3 |
| 20260504231257 | 20 | 165 | 3.2 | 8.0 | 0.00 | 0.00 | 0.00 | 32 | 1013.9 |
| 20260504231022 | 20 | 24 | 4.8 | 14.5 | 0.00 | 0.00 | 0.00 | 32 | 1014.0 |
| 20260504231009 | 20 | 240 | 1.6 | 11.3 | 0.00 | 0.00 | 0.00 | 32 | 1012.3 |
| 20260504230508 | 20 | 290 | 3.2 | 14.5 | 0.00 | 0.00 | 0.00 | 31 | 1012.3 |
| 20260504230255 | 20 | 269 | 3.2 | 14.5 | 0.00 | 0.00 | 0.00 | 32 | 1014.0 |
| 20260504230028 | 20 | 109 | 3.2 | 14.5 | 0.00 | 0.00 | 0.00 | 32 | 1012.3 |
| 20260504230016 | 20 | 112 | 3.2 | 14.5 | 0.00 | 0.00 | 0.00 | 30 | 1014.0 |
| 20260504225506 | 20 | 186 | 1.6 | 14.5 | 0.00 | 0.00 | 0.00 | 31 | 1012.4 |
| 20260504225249 | 20 | 121 | 3.2 | 14.5 | 0.00 | 0.00 | 0.00 | 31 | 1014.0 |
| 20260504225009 | 20 | 276 | 3.2 | 12.9 | 0.00 | 0.00 | 0.00 | 30 | 1012.4 |
| 20260504225003 | 20 | 299 | 3.2 | 8.0 | 0.00 | 0.00 | 0.00 | 30 | 1014.0 |
| 20260504224519 | 20 | 308 | 0.0 | 11.3 | 0.00 | 0.00 | 0.00 | 31 | 1012.5 |
| 20260504224242 | 20 | 304 | 3.2 | 11.3 | 0.00 | 0.00 | 0.00 | 30 | 1014.0 |
| 20260504224006 | 20 | 17 | 3.2 | 14.5 | 0.00 | 0.00 | 0.00 | 30 | 1012.5 |
| 20260504223742 | 20 | 116 | 3.2 | 14.5 | 0.00 | 0.00 | 0.00 | 30 | 1014.1 |
| 20260504223507 | 20 | 197 | 1.6 | 14.5 | 0.00 | 0.00 | 0.00 | 29 | 1012.5 |
| 20260504223241 | 20 | 232 | 3.2 | 14.5 | 0.00 | 0.00 | 0.00 | 29 | 1014.1 |
| 20260504223022 | 20 | 261 | 3.2 | 14.5 | 0.00 | 0.00 | 0.00 | 29 | 1012.5 |
| 20260504223003 | 20 | 321 | 1.6 | 11.3 | 0.00 | 0.00 | 0.00 | 30 | 1014.2 |
| 20260504222506 | 20 | 180 | 1.6 | 11.3 | 0.00 | 0.00 | 0.00 | 31 | 1012.5 |
| 20260504222458 | 20 | 118 | 3.2 | 9.7 | 0.00 | 0.00 | 0.00 | 32 | 1014.2 |
| 20260504222006 | 20 | 53 | 0.0 | 9.7 | 0.00 | 0.00 | 0.00 | 29 | 1012.6 |
| 20260504221738 | 20 | 113 | 3.2 | 16.1 | 0.00 | 0.00 | 0.00 | 30 | 1014.1 |
| 20260504221519 | 20 | 117 | 3.2 | 16.1 | 0.00 | 0.00 | 0.00 | 29 | 1012.6 |
| 20260504221239 | 20 | 193 | 3.2 | 16.1 | 0.00 | 0.00 | 0.00 | 30 | 1014.0 |
| 20260504221010 | 20 | 265 | 6.4 | 16.1 | 0.00 | 0.00 | 0.00 | 27 | 1012.4 |
| 20260504220739 | 20 | 144 | 3.2 | 11.3 | 0.00 | 0.00 | 0.00 | 27 | 1014.1 |
| 20260504220512 | 20 | 283 | 3.2 | 11.3 | 0.00 | 0.00 | 0.00 | 30 | 1012.5 |
| 20260504220240 | 20 | 132 | 3.2 | 9.7 | 0.00 | 0.00 | 0.00 | 31 | 1014.1 |
| 20260504220029 | 20 | 119 | 3.2 | 22.5 | 0.00 | 0.00 | 0.00 | 30 | 1012.5 |
| 20260504215739 | 21 | 267 | 4.8 | 22.5 | 0.00 | 0.00 | 0.00 | 29 | 1014.2 |
| 20260504215508 | 20 | 210 | 3.2 | 22.5 | 0.00 | 0.00 | 0.00 | 30 | 1012.5 |
| 20260504215239 | 21 | 214 | 4.8 | 22.5 | 0.00 | 0.00 | 0.00 | 29 | 1014.2 |
| 20260504215012 | 21 | 325 | 6.4 | 22.5 | 0.00 | 0.00 | 0.00 | 28 | 1012.6 |
| 20260504214739 | 21 | 337 | 3.2 | 11.3 | 0.00 | 0.00 | 0.00 | 30 | 1014.3 |
| 20260504214528 | 21 | 294 | 3.2 | 16.1 | 0.00 | 0.00 | 0.00 | 29 | 1012.8 |
| 20260504214239 | 21 | 127 | 3.2 | 16.1 | 0.00 | 0.00 | 0.00 | 26 | 1014.4 |
| 20260504214010 | 21 | 299 | 3.2 | 16.1 | 0.00 | 0.00 | 0.00 | 27 | 1012.7 |
| 20260504213739 | 21 | 114 | 3.2 | 16.1 | 0.00 | 0.00 | 0.00 | 27 | 1014.4 |
| 20260504213506 | 21 | 153 | 0.0 | 11.3 | 0.00 | 0.00 | 0.00 | 28 | 1012.8 |
| 20260504213239 | 21 | 328 | 3.2 | 11.3 | 0.00 | 0.00 | 0.00 | 29 | 1014.3 |
| 20260504213022 | 21 | 317 | 4.8 | 14.5 | 0.00 | 0.00 | 0.00 | 26 | 1013.1 |
| 20260504212739 | 21 | 315 | 4.8 | 14.5 | 0.00 | 0.00 | 0.00 | 28 | 1014.4 |
| 20260504212509 | 21 | 42 | 1.6 | 17.7 | 0.00 | 0.00 | 0.00 | 29 | 1012.7 |
| 20260504212239 | 21 | 0 | 6.4 | 17.7 | 0.00 | 0.00 | 0.00 | 29 | 1014.3 |
| 20260504212010 | 21 | 191 | 4.8 | 17.7 | 0.00 | 0.00 | 0.00 | 30 | 1012.8 |
| 20260504211530 | 21 | 281 | 1.6 | 12.9 | 0.00 | 0.00 | 0.00 | 27 | 1012.8 |
| 20260504211238 | 21 | 92 | 3.2 | 12.9 | 0.00 | 0.00 | 0.00 | 28 | 1014.4 |
| 20260504211007 | 21 | 348 | 3.2 | 12.9 | 0.00 | 0.00 | 0.00 | 25 | 1012.9 |
| 20260504210739 | 22 | 104 | 3.2 | 12.9 | 0.00 | 0.00 | 0.00 | 29 | 1014.5 |
| 20260504210506 | 21 | 117 | 3.2 | 12.9 | 0.00 | 0.00 | 0.00 | 31 | 1012.9 |
| 20260504210239 | 21 | 217 | 3.2 | 9.7 | 0.00 | 0.00 | 0.00 | 31 | 1014.5 |
| 20260504210026 | 21 | 264 | 1.6 | 9.7 | 0.00 | 0.00 | 0.00 | 28 | 1012.9 |
| 20260504210005 | 21 | 279 | 3.2 | 9.7 | 0.00 | 0.00 | 0.00 | 29 | 1014.5 |
| 20260504205514 | 21 | 187 | 1.6 | 11.3 | 0.00 | 0.00 | 0.00 | 29 | 1013.0 |
| 20260504205238 | 21 | 256 | 3.2 | 11.3 | 0.00 | 0.00 | 0.00 | 30 | 1014.7 |
| 20260504205007 | 21 | 127 | 3.2 | 14.5 | 0.00 | 0.00 | 0.00 | 29 | 1013.0 |
| 20260504204737 | 21 | 269 | 4.8 | 14.5 | 0.00 | 0.00 | 0.00 | 29 | 1014.7 |
| 20260504204527 | 20 | 188 | 1.6 | 14.5 | 0.00 | 0.00 | 0.00 | 29 | 1013.0 |
| 20260504204237 | 20 | 274 | 4.8 | 14.5 | 0.00 | 0.00 | 0.00 | 29 | 1014.8 |
| 20260504204009 | 20 | 184 | 3.2 | 17.7 | 0.00 | 0.00 | 0.00 | 28 | 1013.1 |
| 20260504203737 | 20 | 274 | 4.8 | 17.7 | 0.00 | 0.00 | 0.00 | 30 | 1014.7 |
| 20260504203503 | 20 | 311 | 1.6 | 17.7 | 0.00 | 0.00 | 0.00 | 29 | 1013.1 |
| 20260504203237 | 21 | 267 | 4.8 | 17.7 | 0.00 | 0.00 | 0.00 | 29 | 1014.7 |
| 20260504203006 | 20 | 213 | 1.6 | 16.1 | 0.00 | 0.00 | 0.00 | 29 | 1013.2 |
| 20260504202736 | 21 | 229 | 3.2 | 16.1 | 0.00 | 0.00 | 0.00 | 29 | 1014.7 |
| 20260504202502 | 21 | 323 | 4.8 | 16.1 | 0.00 | 0.00 | 0.00 | 28 | 1013.1 |
| 20260504202230 | 21 | 284 | 3.2 | 12.9 | 0.00 | 0.00 | 0.00 | 30 | 1014.8 |
| 20260504202004 | 21 | 94 | 1.6 | 9.7 | 0.00 | 0.00 | 0.00 | 32 | 1013.1 |
| 20260504201724 | 21 | 98 | 3.2 | 9.7 | 0.00 | 0.00 | 0.00 | 31 | 1014.8 |
| 20260504201504 | 21 | 304 | 1.6 | 16.1 | 0.00 | 0.00 | 0.00 | 29 | 1013.1 |
| 20260504201219 | 21 | 232 | 3.2 | 16.1 | 0.00 | 0.00 | 0.00 | 30 | 1014.8 |
| 20260504201004 | 20 | 243 | 3.2 | 16.1 | 0.00 | 0.00 | 0.00 | 31 | 1013.2 |
| 20260504200713 | 20 | 315 | 3.2 | 16.1 | 0.00 | 0.00 | 0.00 | 30 | 1014.8 |
| 20260504200503 | 20 | 265 | 0.0 | 11.3 | 0.00 | 0.00 | 0.00 | 33 | 1013.3 |
| 20260504200206 | 20 | 316 | 3.2 | 12.9 | 0.00 | 0.00 | 0.00 | 33 | 1014.8 |
| 20260504200004 | 20 | 146 | 1.6 | 12.9 | 0.00 | 0.00 | 0.00 | 33 | 1013.3 |
| 20260504195923 | 20 | 243 | 4.8 | 20.9 | 0.00 | 0.00 | 0.00 | 31 | 1014.7 |
| 20260504195502 | 20 | 261 | 4.8 | 20.9 | 0.00 | 0.00 | 0.00 | 31 | 1013.3 |
| 20260504195155 | 20 | 321 | 4.8 | 20.9 | 0.00 | 0.00 | 0.00 | 31 | 1014.9 |
| 20260504195003 | 20 | 315 | 8.0 | 20.9 | 0.00 | 0.00 | 0.00 | 30 | 1013.4 |
| 20260504194653 | 20 | 320 | 3.2 | 17.7 | 0.00 | 0.00 | 0.00 | 31 | 1014.8 |
| 20260504194507 | 20 | 239 | 3.2 | 17.7 | 0.00 | 0.00 | 0.00 | 31 | 1013.4 |
| 20260504194153 | 20 | 242 | 3.2 | 14.5 | 0.00 | 0.00 | 0.00 | 32 | 1015.0 |
| 20260504194003 | 20 | 125 | 0.0 | 14.5 | 0.00 | 0.00 | 0.00 | 33 | 1013.3 |
| 20260504193652 | 20 | 63 | 3.2 | 14.5 | 0.00 | 0.00 | 0.00 | 32 | 1015.0 |
| 20260504193503 | 20 | 282 | 1.6 | 14.5 | 0.00 | 0.00 | 0.00 | 32 | 1013.4 |
| 20260504193009 | 20 | 115 | 3.2 | 11.3 | 0.00 | 0.00 | 0.00 | 32 | 1013.5 |
| 20260504192913 | 21 | 159 | 3.2 | 9.7 | 0.00 | 0.00 | 0.00 | 31 | 1014.9 |
| 20260504192506 | 21 | 188 | 3.2 | 9.7 | 0.00 | 0.00 | 0.00 | 31 | 1013.6 |
| 20260504192410 | 21 | 277 | 1.6 | 9.7 | 0.00 | 0.00 | 0.00 | 32 | 1015.0 |
| 20260504192002 | 21 | 130 | 0.0 | 8.0 | 0.00 | 0.00 | 0.00 | 31 | 1013.4 |
| 20260504191647 | 21 | 24 | 1.6 | 6.4 | 0.00 | 0.00 | 0.00 | 34 | 1015.0 |
| 20260504191504 | 20 | 88 | 1.6 | 6.4 | 0.00 | 0.00 | 0.00 | 33 | 1013.5 |
| 20260504191415 | 20 | 9 | 1.6 | 9.7 | 0.00 | 0.00 | 0.00 | 33 | 1015.0 |
| 20260504191002 | 20 | 91 | 1.6 | 11.3 | 0.00 | 0.00 | 0.00 | 34 | 1013.5 |
| 20260504190647 | 20 | 111 | 3.2 | 11.3 | 0.00 | 0.00 | 0.00 | 35 | 1015.0 |
| 20260504190504 | 20 | 101 | 1.6 | 11.3 | 0.00 | 0.00 | 0.00 | 33 | 1013.5 |
| 20260504190146 | 20 | 132 | 3.2 | 11.3 | 0.00 | 0.00 | 0.00 | 33 | 1014.9 |
| 20260504190004 | 20 | 204 | 3.2 | 14.5 | 0.00 | 0.00 | 0.00 | 34 | 1013.5 |
| 20260504185647 | 19 | 255 | 3.2 | 14.5 | 0.00 | 0.00 | 0.00 | 35 | 1015.0 |
| 20260504185503 | 19 | 71 | 0.0 | 14.5 | 0.00 | 0.00 | 0.00 | 37 | 1013.6 |
| 20260504185146 | 19 | 141 | 3.2 | 14.5 | 0.00 | 0.00 | 0.00 | 34 | 1014.9 |
| 20260504185006 | 19 | 234 | 3.2 | 14.5 | 0.00 | 0.00 | 0.00 | 33 | 1013.6 |
| 20260504184647 | 20 | 197 | 3.2 | 12.9 | 0.00 | 0.00 | 0.00 | 34 | 1015.0 |
| 20260504184504 | 19 | 294 | 1.6 | 8.0 | 0.00 | 0.00 | 0.00 | 34 | 1013.6 |
| 20260504184409 | 19 | 73 | 3.2 | 9.7 | 0.00 | 0.00 | 0.00 | 35 | 1015.0 |
| 20260504184007 | 18 | 184 | 3.2 | 11.3 | 0.00 | 0.00 | 0.00 | 35 | 1013.6 |
| 20260504183642 | 19 | 187 | 3.2 | 11.3 | 0.00 | 0.00 | 0.00 | 34 | 1015.1 |
| 20260504183504 | 18 | 236 | 3.2 | 11.3 | 0.00 | 0.00 | 0.00 | 34 | 1013.6 |
| 20260504183143 | 19 | 175 | 4.8 | 20.9 | 0.00 | 0.00 | 0.00 | 35 | 1015.1 |
| 20260504183011 | 18 | 229 | 1.6 | 20.9 | 0.00 | 0.00 | 0.00 | 35 | 1013.6 |
| 20260504182641 | 18 | 86 | 4.8 | 20.9 | 0.00 | 0.00 | 0.00 | 36 | 1015.0 |
| 20260504182503 | 18 | 259 | 8.0 | 20.9 | 0.00 | 0.00 | 0.00 | 34 | 1013.6 |
| 20260504182406 | 18 | 321 | 4.8 | 16.1 | 0.00 | 0.00 | 0.00 | 35 | 1015.0 |
| 20260504182004 | 18 | 236 | 3.2 | 16.1 | 0.00 | 0.00 | 0.00 | 36 | 1013.5 |
| 20260504181634 | 18 | 279 | 4.8 | 16.1 | 0.00 | 0.00 | 0.00 | 35 | 1015.0 |
| 20260504181523 | 18 | 241 | 4.8 | 14.5 | 0.00 | 0.00 | 0.00 | 34 | 1013.4 |
| 20260504181129 | 18 | 289 | 3.2 | 14.5 | 0.00 | 0.00 | 0.00 | 35 | 1014.9 |
| 20260504181002 | 18 | 265 | 3.2 | 14.5 | 0.00 | 0.00 | 0.00 | 36 | 1013.5 |
| 20260504180622 | 18 | 265 | 3.2 | 12.9 | 0.00 | 0.00 | 0.00 | 35 | 1014.9 |
| 20260504180504 | 18 | 284 | 3.2 | 12.9 | 0.00 | 0.00 | 0.00 | 35 | 1013.4 |
| 20260504180116 | 18 | 350 | 3.2 | 12.9 | 0.00 | 0.00 | 0.00 | 37 | 1014.9 |
| 20260504180005 | 18 | 316 | 3.2 | 12.9 | 0.00 | 0.00 | 0.00 | 36 | 1013.5 |
| 20260504175610 | 18 | 255 | 3.2 | 12.9 | 0.00 | 0.00 | 0.00 | 36 | 1014.8 |
| 20260504175504 | 18 | 265 | 3.2 | 12.9 | 0.00 | 0.00 | 0.00 | 35 | 1013.4 |
| 20260504175104 | 18 | 208 | 4.8 | 16.1 | 0.00 | 0.00 | 0.00 | 37 | 1014.8 |
| 20260504175003 | 17 | 312 | 4.8 | 16.1 | 0.00 | 0.00 | 0.00 | 36 | 1013.5 |
| 20260504174558 | 18 | 277 | 4.8 | 16.1 | 0.00 | 0.00 | 0.00 | 36 | 1014.8 |
| 20260504174504 | 17 | 239 | 4.8 | 16.1 | 0.00 | 0.00 | 0.00 | 35 | 1013.4 |
| 20260504174052 | 18 | 273 | 3.2 | 11.3 | 0.00 | 0.00 | 0.00 | 36 | 1014.8 |
| 20260504174003 | 18 | 239 | 3.2 | 11.3 | 0.00 | 0.00 | 0.00 | 35 | 1013.5 |
| 20260504173809 | 18 | 314 | 3.2 | 11.3 | 0.00 | 0.00 | 0.00 | 38 | 1014.8 |
| 20260504173504 | 18 | 203 | 0.0 | 11.3 | 0.00 | 0.00 | 0.00 | 37 | 1013.5 |
| 20260504173040 | 18 | 300 | 4.8 | 12.9 | 0.00 | 0.00 | 0.00 | 37 | 1015.2 |
| 20260504173004 | 17 | 252 | 1.6 | 14.5 | 0.00 | 0.00 | 0.00 | 36 | 1013.5 |
| 20260504172534 | 17 | 272 | 4.8 | 14.5 | 0.00 | 0.00 | 0.00 | 38 | 1015.1 |
| 20260504172504 | 17 | 257 | 3.2 | 14.5 | 0.00 | 0.00 | 0.00 | 37 | 1013.6 |
| 20260504172028 | 17 | 304 | 4.8 | 17.7 | 0.00 | 0.00 | 0.00 | 37 | 1015.2 |
| 20260504172005 | 17 | 263 | 1.6 | 17.7 | 0.00 | 0.00 | 0.00 | 37 | 1013.6 |
| 20260504171522 | 17 | 262 | 6.4 | 17.7 | 0.00 | 0.00 | 0.00 | 38 | 1015.1 |
| 20260504171509 | 17 | 262 | 3.2 | 17.7 | 0.00 | 0.00 | 0.00 | 37 | 1013.5 |
| 20260504171016 | 17 | 276 | 6.4 | 19.3 | 0.00 | 0.00 | 0.00 | 38 | 1015.1 |
| 20260504171006 | 17 | 282 | 6.4 | 19.3 | 0.00 | 0.00 | 0.00 | 37 | 1013.6 |
| 20260504170510 | 17 | 250 | 6.4 | 19.3 | 0.00 | 0.00 | 0.00 | 37 | 1015.1 |
| 20260504170505 | 17 | 263 | 3.2 | 19.3 | 0.00 | 0.00 | 0.00 | 36 | 1013.6 |
| 20260504170227 | 17 | 277 | 4.8 | 17.7 | 0.00 | 0.00 | 0.00 | 37 | 1015.1 |
| 20260504160358 | 16 | 330 | 3.2 | 16.1 | 0.00 | 0.00 | 0.00 | 38 | 1015.2 |
| 20260504151003 | 13 | 281 | 0.0 | 6.4 | 0.00 | 0.00 | 0.00 | 44 | 1013.6 |
| 20260504150752 | 13 | 281 | 1.6 | 6.4 | 0.00 | 0.00 | 0.00 | 44 | 1015.1 |
| 20260504150503 | 13 | 282 | 0.0 | 6.4 | 0.00 | 0.00 | 0.00 | 44 | 1013.6 |
| 20260504150246 | 13 | 283 | 1.6 | 6.4 | 0.00 | 0.00 | 0.00 | 44 | 1015.1 |
| 20260504141146 | 9 | 275 | 0.0 | 0.0 | 0.00 | 0.00 | 0.00 | 59 | 1014.8 |
| 20260504141010 | 8 | 275 | 0.0 | 0.0 | 0.00 | 0.00 | 0.00 | 59 | 1013.5 |
| 20260504140640 | 9 | 275 | 0.0 | 0.0 | 0.00 | 0.00 | 0.00 | 59 | 1014.9 |
| 20260504140503 | 8 | 275 | 0.0 | 0.0 | 0.00 | 0.00 | 0.00 | 60 | 1013.6 |
| 20260504140134 | 8 | 275 | 0.0 | 0.0 | 0.00 | 0.00 | 0.00 | 58 | 1014.9 |
| 20260504130615 | 7 | 292 | 0.0 | 0.0 | 0.00 | 0.00 | 0.00 | 59 | 1014.7 |
| 20260504130506 | 7 | 292 | 0.0 | 0.0 | 0.00 | 0.00 | 0.00 | 58 | 1013.4 |
| 20260504130114 | 7 | 292 | 0.0 | 0.0 | 0.00 | 0.00 | 0.00 | 60 | 1014.8 |
| 20260504120107 | 8 | 292 | 1.6 | 4.8 | 0.00 | 0.00 | 0.00 | 56 | 1014.7 |
| 20260504110558 | 8 | 312 | 1.6 | 6.4 | 0.00 | 0.00 | 0.00 | 58 | 1014.5 |
| 20260504110502 | 8 | 312 | 0.0 | 6.4 | 0.00 | 0.00 | 0.00 | 56 | 1013.1 |
| 20260504100549 | 8 | 298 | 1.6 | 4.8 | 0.00 | 0.00 | 0.00 | 57 | 1014.7 |
| 20260504100507 | 8 | 298 | 1.6 | 4.8 | 0.00 | 0.00 | 0.00 | 57 | 1013.2 |
| 20260504082003 | 10 | 306 | 1.6 | 6.4 | 0.00 | 0.00 | 0.00 | 49 | 1013.6 |
| 20260504081855 | 10 | 306 | 1.6 | 6.4 | 0.00 | 0.00 | 0.00 | 51 | 1015.0 |
| 20260504081511 | 10 | 284 | 0.0 | 6.4 | 0.00 | 0.00 | 0.00 | 49 | 1013.6 |
| 20260504081349 | 11 | 300 | 0.0 | 0.0 | 0.00 | 0.00 | 0.00 | 50 | 1015.0 |
| 20260504081005 | 10 | 301 | 0.0 | 0.0 | 0.00 | 0.00 | 0.00 | 49 | 1013.6 |
| 20260504080844 | 11 | 296 | 0.0 | 0.0 | 0.00 | 0.00 | 0.00 | 48 | 1014.9 |
| 20260504080506 | 11 | 296 | 0.0 | 0.0 | 0.00 | 0.00 | 0.00 | 47 | 1013.5 |
| 20260504080347 | 11 | 296 | 0.0 | 0.0 | 0.00 | 0.00 | 0.00 | 48 | 1014.8 |
| 20260504060216 | 16 | 92 | 1.6 | 8.0 | 0.00 | 0.00 | 0.00 | 37 | 1015.3 |
| 20260504050507 | 15 | 240 | 0.0 | 3.2 | 0.00 | 0.00 | 0.00 | 39 | 1014.2 |
| 20260504050208 | 15 | 161 | 0.0 | 3.2 | 0.00 | 0.00 | 0.00 | 39 | 1015.8 |
| 20260504045708 | 15 | 154 | 0.0 | 6.4 | 0.00 | 0.00 | 0.00 | 40 | 1015.8 |
| 20260504045510 | 15 | 154 | 0.0 | 8.0 | 0.00 | 0.00 | 0.00 | 39 | 1014.2 |
| 20260504045207 | 15 | 154 | 0.0 | 8.0 | 0.00 | 0.00 | 0.00 | 41 | 1015.8 |
| 20260504045007 | 15 | 200 | 0.0 | 8.0 | 0.00 | 0.00 | 0.00 | 39 | 1014.2 |
| 20260504044708 | 15 | 200 | 1.6 | 8.0 | 0.00 | 0.00 | 0.00 | 41 | 1015.9 |
| 20260504044526 | 15 | 284 | 0.0 | 4.8 | 0.00 | 0.00 | 0.00 | 40 | 1014.2 |
| 20260504044208 | 15 | 319 | 1.6 | 4.8 | 0.00 | 0.00 | 0.00 | 41 | 1015.8 |
| 20260504044009 | 15 | 319 | 0.0 | 11.3 | 0.00 | 0.00 | 0.00 | 41 | 1014.2 |
| 20260504043928 | 14 | 329 | 1.6 | 11.3 | 0.00 | 0.00 | 0.00 | 41 | 1015.7 |
| 20260504043503 | 14 | 327 | 0.0 | 11.3 | 0.00 | 0.00 | 0.00 | 42 | 1014.2 |
| 20260504043207 | 13 | 133 | 1.6 | 11.3 | 0.00 | 0.00 | 0.00 | 43 | 1015.7 |
| 20260504043015 | 13 | 126 | 0.0 | 6.4 | 0.00 | 0.00 | 0.00 | 43 | 1014.0 |
| 20260504042708 | 13 | 130 | 1.6 | 6.4 | 0.00 | 0.00 | 0.00 | 46 | 1015.6 |
| 20260504042507 | 13 | 111 | 1.6 | 6.4 | 0.00 | 0.00 | 0.00 | 44 | 1014.0 |
| 20260504042201 | 13 | 157 | 0.0 | 8.0 | 0.00 | 0.00 | 0.00 | 47 | 1015.6 |
| 20260504042006 | 12 | 338 | 0.0 | 8.0 | 0.00 | 0.00 | 0.00 | 46 | 1014.1 |
| 20260504041655 | 13 | 342 | 0.0 | 8.0 | 0.00 | 0.00 | 0.00 | 47 | 1015.7 |
| 20260504041519 | 12 | 342 | 1.6 | 8.0 | 0.00 | 0.00 | 0.00 | 46 | 1014.1 |
| 20260504041005 | 12 | 173 | 0.0 | 0.0 | 0.00 | 0.00 | 0.00 | 48 | 1014.0 |
| 20260504040644 | 12 | 173 | 0.0 | 0.0 | 0.00 | 0.00 | 0.00 | 49 | 1015.7 |
| 20260504040507 | 12 | 173 | 0.0 | 0.0 | 0.00 | 0.00 | 0.00 | 48 | 1014.1 |
| 20260504040138 | 12 | 173 | 0.0 | 0.0 | 0.00 | 0.00 | 0.00 | 49 | 1015.6 |
| 20260504040027 | 12 | 173 | 0.0 | 0.0 | 0.00 | 0.00 | 0.00 | 48 | 1014.0 |
| 20260504035632 | 13 | 173 | 0.0 | 0.0 | 0.00 | 0.00 | 0.00 | 48 | 1015.6 |
| 20260504035503 | 13 | 173 | 0.0 | 0.0 | 0.00 | 0.00 | 0.00 | 49 | 1014.0 |
| 20260504035125 | 13 | 173 | 0.0 | 1.6 | 0.00 | 0.00 | 0.00 | 48 | 1015.6 |
| 20260504035005 | 13 | 173 | 0.0 | 3.2 | 0.00 | 0.00 | 0.00 | 46 | 1014.0 |
| 20260504034618 | 13 | 173 | 0.0 | 3.2 | 0.00 | 0.00 | 0.00 | 47 | 1015.6 |
| 20260504034516 | 13 | 173 | 0.0 | 3.2 | 0.00 | 0.00 | 0.00 | 47 | 1014.0 |
| 20260504034111 | 14 | 173 | 0.0 | 3.2 | 0.00 | 0.00 | 0.00 | 47 | 1015.6 |
| 20260504034002 | 13 | 173 | 0.0 | 3.2 | 0.00 | 0.00 | 0.00 | 46 | 1014.1 |
| 20260504033605 | 14 | 173 | 0.0 | 3.2 | 0.00 | 0.00 | 0.00 | 46 | 1015.6 |
| 20260504033502 | 14 | 173 | 0.0 | 3.2 | 0.00 | 0.00 | 0.00 | 45 | 1014.0 |
| 20260504033059 | 15 | 173 | 0.0 | 1.6 | 0.00 | 0.00 | 0.00 | 45 | 1015.6 |
| 20260504033021 | 15 | 173 | 0.0 | 1.6 | 0.00 | 0.00 | 0.00 | 44 | 1014.0 |
| 20260504032553 | 15 | 173 | 0.0 | 3.2 | 0.00 | 0.00 | 0.00 | 44 | 1015.5 |
| 20260504032501 | 15 | 173 | 0.0 | 3.2 | 0.00 | 0.00 | 0.00 | 43 | 1013.9 |
| 20260504032047 | 16 | 173 | 0.0 | 4.8 | 0.00 | 0.00 | 0.00 | 43 | 1015.5 |
| 20260504032003 | 15 | 173 | 0.0 | 4.8 | 0.00 | 0.00 | 0.00 | 42 | 1013.9 |
| 20260504031803 | 16 | 173 | 0.0 | 4.8 | 0.00 | 0.00 | 0.00 | 42 | 1015.3 |
| 20260504031506 | 16 | 173 | 0.0 | 4.8 | 0.00 | 0.00 | 0.00 | 41 | 1013.9 |
| 20260504031304 | 16 | 173 | 0.0 | 1.6 | 0.00 | 0.00 | 0.00 | 41 | 1015.3 |
| 20260504031005 | 16 | 173 | 0.0 | 3.2 | 0.00 | 0.00 | 0.00 | 41 | 1013.9 |
| 20260504030529 | 17 | 173 | 0.0 | 3.2 | 0.00 | 0.00 | 0.00 | 41 | 1015.3 |
| 20260504030502 | 16 | 173 | 0.0 | 3.2 | 0.00 | 0.00 | 0.00 | 40 | 1013.9 |
| 20260504030245 | 17 | 173 | 0.0 | 3.2 | 0.00 | 0.00 | 0.00 | 39 | 1015.3 |
| 20260504030004 | 17 | 173 | 0.0 | 3.2 | 0.00 | 0.00 | 0.00 | 38 | 1013.8 |
| 20260504025517 | 17 | 173 | 0.0 | 3.2 | 0.00 | 0.00 | 0.00 | 38 | 1015.3 |
| 20260504025503 | 17 | 173 | 0.0 | 3.2 | 0.00 | 0.00 | 0.00 | 38 | 1013.9 |
| 20260504025010 | 18 | 173 | 0.0 | 3.2 | 0.00 | 0.00 | 0.00 | 38 | 1015.3 |
| 20260504025004 | 17 | 173 | 0.0 | 3.2 | 0.00 | 0.00 | 0.00 | 38 | 1013.8 |
| 20260504024511 | 18 | 173 | 0.0 | 3.2 | 0.00 | 0.00 | 0.00 | 36 | 1013.8 |
| 20260504024007 | 18 | 173 | 0.0 | 4.8 | 0.00 | 0.00 | 0.00 | 37 | 1013.8 |
| 20260504023959 | 18 | 173 | 0.0 | 4.8 | 0.00 | 0.00 | 0.00 | 38 | 1015.2 |
| 20260504023504 | 18 | 173 | 0.0 | 4.8 | 0.00 | 0.00 | 0.00 | 37 | 1013.8 |
| 20260504023454 | 19 | 173 | 0.0 | 4.8 | 0.00 | 0.00 | 0.00 | 37 | 1015.2 |
| 20260504023207 | 19 | 152 | 0.0 | 1.6 | 0.00 | 0.00 | 0.00 | 36 | 1015.2 |
| 20260504023003 | 19 | 152 | 0.0 | 1.6 | 0.00 | 0.00 | 0.00 | 35 | 1013.8 |
| 20260504022706 | 20 | 152 | 0.0 | 4.8 | 0.00 | 0.00 | 0.00 | 34 | 1015.2 |
| 20260504022503 | 20 | 152 | 0.0 | 4.8 | 0.00 | 0.00 | 0.00 | 33 | 1013.8 |
| 20260504022007 | 20 | 152 | 0.0 | 4.8 | 0.00 | 0.00 | 0.00 | 33 | 1013.9 |
| 20260504021935 | 20 | 152 | 0.0 | 4.8 | 0.00 | 0.00 | 0.00 | 33 | 1015.2 |
| 20260504021516 | 20 | 152 | 0.0 | 3.2 | 0.00 | 0.00 | 0.00 | 33 | 1013.9 |
| 20260504021429 | 20 | 152 | 0.0 | 3.2 | 0.00 | 0.00 | 0.00 | 34 | 1015.2 |
| 20260504021002 | 20 | 152 | 0.0 | 4.8 | 0.00 | 0.00 | 0.00 | 32 | 1013.9 |
| 20260504020923 | 21 | 152 | 1.6 | 4.8 | 0.00 | 0.00 | 0.00 | 33 | 1015.3 |
| 20260504020642 | 21 | 148 | 1.6 | 4.8 | 0.00 | 0.00 | 0.00 | 31 | 1015.5 |
| 20260504020502 | 21 | 148 | 0.0 | 4.8 | 0.00 | 0.00 | 0.00 | 30 | 1013.9 |
| 20260504020004 | 20 | 165 | 0.0 | 4.8 | 0.00 | 0.00 | 0.00 | 31 | 1013.9 |
| 20260504015911 | 21 | 165 | 1.6 | 4.8 | 0.00 | 0.00 | 0.00 | 32 | 1015.3 |
| 20260504015502 | 20 | 156 | 1.6 | 6.4 | 0.00 | 0.00 | 0.00 | 30 | 1014.0 |
| 20260504015405 | 21 | 156 | 1.6 | 6.4 | 0.00 | 0.00 | 0.00 | 30 | 1015.5 |
| 20260504015003 | 21 | 188 | 0.0 | 6.4 | 0.00 | 0.00 | 0.00 | 30 | 1013.9 |
| 20260504014859 | 21 | 189 | 1.6 | 6.4 | 0.00 | 0.00 | 0.00 | 30 | 1015.3 |
| 20260504014624 | 21 | 170 | 1.6 | 6.4 | 0.00 | 0.00 | 0.00 | 31 | 1015.3 |
| 20260504014503 | 21 | 170 | 0.0 | 6.4 | 0.00 | 0.00 | 0.00 | 31 | 1013.9 |
| 20260504014005 | 21 | 200 | 0.0 | 6.4 | 0.00 | 0.00 | 0.00 | 30 | 1013.9 |
| 20260504013847 | 21 | 200 | 1.6 | 8.0 | 0.00 | 0.00 | 0.00 | 30 | 1015.5 |
| 20260504013502 | 21 | 200 | 0.0 | 8.0 | 0.00 | 0.00 | 0.00 | 30 | 1014.0 |
| 20260504013341 | 21 | 200 | 1.6 | 8.0 | 0.00 | 0.00 | 0.00 | 30 | 1015.5 |
| 20260504013006 | 21 | 196 | 1.6 | 8.0 | 0.00 | 0.00 | 0.00 | 30 | 1013.9 |
| 20260504012835 | 21 | 165 | 1.6 | 4.8 | 0.00 | 0.00 | 0.00 | 31 | 1015.5 |
| 20260504012504 | 21 | 224 | 1.6 | 6.4 | 0.00 | 0.00 | 0.00 | 28 | 1014.0 |
| 20260504012330 | 21 | 132 | 3.2 | 6.4 | 0.00 | 0.00 | 0.00 | 30 | 1015.5 |
| 20260504012004 | 21 | 305 | 1.6 | 6.4 | 0.00 | 0.00 | 0.00 | 29 | 1014.0 |
| 20260504011824 | 21 | 276 | 1.6 | 6.4 | 0.00 | 0.00 | 0.00 | 29 | 1015.6 |
| 20260504011504 | 21 | 293 | 1.6 | 6.4 | 0.00 | 0.00 | 0.00 | 28 | 1014.0 |
| 20260504011317 | 21 | 325 | 1.6 | 6.4 | 0.00 | 0.00 | 0.00 | 28 | 1015.6 |
| 20260504011003 | 21 | 91 | 0.0 | 6.4 | 0.00 | 0.00 | 0.00 | 29 | 1014.1 |
| 20260504010811 | 21 | 265 | 1.6 | 6.4 | 0.00 | 0.00 | 0.00 | 29 | 1015.6 |
| 20260504010505 | 21 | 313 | 1.6 | 6.4 | 0.00 | 0.00 | 0.00 | 28 | 1014.1 |
| 20260504010305 | 22 | 114 | 3.2 | 6.4 | 0.00 | 0.00 | 0.00 | 29 | 1015.7 |
| 20260504010003 | 21 | 109 | 3.2 | 8.0 | 0.00 | 0.00 | 0.00 | 29 | 1014.1 |
| 20260504005759 | 21 | 156 | 3.2 | 8.0 | 0.00 | 0.00 | 0.00 | 29 | 1015.7 |
| 20260504005504 | 21 | 192 | 1.6 | 8.0 | 0.00 | 0.00 | 0.00 | 29 | 1014.2 |
| 20260504005253 | 22 | 238 | 3.2 | 11.3 | 0.00 | 0.00 | 0.00 | 27 | 1015.7 |
| 20260504005003 | 21 | 121 | 1.6 | 8.0 | 0.00 | 0.00 | 0.00 | 28 | 1014.1 |
| 20260504004747 | 22 | 200 | 3.2 | 11.3 | 0.00 | 0.00 | 0.00 | 29 | 1015.7 |
| 20260504004508 | 21 | 102 | 0.0 | 11.3 | 0.00 | 0.00 | 0.00 | 26 | 1014.2 |
| 20260504004242 | 22 | 165 | 3.2 | 12.9 | 0.00 | 0.00 | 0.00 | 26 | 1015.8 |
| 20260504004003 | 21 | 172 | 3.2 | 12.9 | 0.00 | 0.00 | 0.00 | 25 | 1014.3 |
| 20260504003735 | 22 | 279 | 3.2 | 12.9 | 0.00 | 0.00 | 0.00 | 28 | 1015.9 |
| 20260504003505 | 21 | 256 | 3.2 | 12.9 | 0.00 | 0.00 | 0.00 | 26 | 1014.4 |
| 20260504003229 | 21 | 107 | 3.2 | 9.7 | 0.00 | 0.00 | 0.00 | 29 | 1015.8 |
| 20260504003006 | 21 | 187 | 3.2 | 9.7 | 0.00 | 0.00 | 0.00 | 27 | 1014.3 |
| 20260504002723 | 21 | 93 | 3.2 | 11.3 | 0.00 | 0.00 | 0.00 | 28 | 1015.9 |
| 20260504002501 | 21 | 239 | 1.6 | 11.3 | 0.00 | 0.00 | 0.00 | 26 | 1014.4 |
| 20260504002217 | 21 | 132 | 3.2 | 11.3 | 0.00 | 0.00 | 0.00 | 27 | 1016.0 |
| 20260504002002 | 21 | 311 | 3.2 | 11.3 | 0.00 | 0.00 | 0.00 | 26 | 1014.5 |
| 20260504001711 | 21 | 196 | 1.6 | 9.7 | 0.00 | 0.00 | 0.00 | 29 | 1016.1 |
| 20260504001509 | 21 | 153 | 0.0 | 9.7 | 0.00 | 0.00 | 0.00 | 28 | 1014.5 |
| 20260504001205 | 21 | 169 | 3.2 | 11.3 | 0.00 | 0.00 | 0.00 | 29 | 1016.0 |
| 20260504001002 | 21 | 169 | 1.6 | 11.3 | 0.00 | 0.00 | 0.00 | 27 | 1014.5 |
| 20260504000705 | 21 | 215 | 3.2 | 11.3 | 0.00 | 0.00 | 0.00 | 28 | 1016.1 |
| 20260504000502 | 21 | 272 | 0.0 | 14.5 | 0.00 | 0.00 | 0.00 | 27 | 1014.7 |
| 20260504000205 | 21 | 120 | 3.2 | 14.5 | 0.00 | 0.00 | 0.00 | 29 | 1016.3 |
| 20260504000010 | 20 | 117 | 1.6 | 14.5 | 0.00 | 0.00 | 0.00 | 28 | 1014.6 |
| 20260503235705 | 21 | 253 | 1.6 | 14.5 | 0.00 | 0.00 | 0.00 | 27 | 1016.3 |
| 20260503235505 | 21 | 301 | 3.2 | 11.3 | 0.00 | 0.00 | 0.00 | 27 | 1014.6 |
| 20260503235203 | 21 | 298 | 3.2 | 14.5 | 0.00 | 0.00 | 0.00 | 28 | 1016.3 |